This demonstration page uses our WeatherBlox Daily Observations layout. Learn more.

39.92423, -83.80882

Hourly Observations for April 3, 2020

Temp ( °F °C ) Dew Point ( °F °C ) Humidity (%) Winds ( mph kmh ) Pressure ( in mb ) Visibility ( mi km ) Precip ( " mm )
12:56 am 00:56 Clear 42 5.6 39 3.9 89 89 Calm 30.11 1020 10 16.0934 0 0
1:56 am 01:56 Clear 40 4.4 38 3.3 93 93 WNW 3 6 30.12 1020 10 16.0934 0 0
2:56 am 02:56 Clear 42 5.6 36 2.2 79 79 Calm 30.1 1019 10 16.0934 0.01 0.254
3:56 am 03:56 Clear 39 3.9 37 2.8 93 93 W 3 6 30.1 1019 10 16.0934 0.01 0.254
4:56 am 04:56 Clear 39 3.9 36 2.2 89 89 Calm 30.09 1019 10 16.0934 0 0
5:56 am 05:56 Clear 35 1.7 35 1.7 100 100 Calm 30.09 1019 10 16.0934 0 0
6:56 am 06:56 Clear 36 2.2 35 1.7 97 97 Calm 30.1 1019 10 16.0934 0 0
7:56 am 07:56 Sunny 37 2.8 37 2.8 100 100 W 3 6 30.12 1020 10 16.0934 0 0
8:56 am 08:56 Sunny 45 7.2 40 4.4 83 83 W 7 11 30.12 1020 10 16.0934 0 0
9:56 am 09:56 Sunny 50 10 39 3.9 66 66 NW 7 11 30.13 1020 10 16.0934 0 0
10:56 am 10:56 Sunny 55 12.8 39 3.9 55 55 NW 6 9 30.12 1020 10 16.0934 0 0
11:56 am 11:56 Sunny 60 15.6 37 2.8 42 42 N 9 15 30.11 1020 10 16.0934 0 0
12:56 pm 12:56 Sunny 61 16.1 36 2.2 39 39 N 9 15 30.1 1019 10 16.0934 0 0
1:56 pm 13:56 Sunny 63 17.2 34 1.1 34 34 NNW 10 17 30.08 1019 10 16.0934 0 0
2:56 pm 14:56 Sunny 63 17.2 33 0.6 33 33 NW 9 15 30.06 1018 10 16.0934 0 0
3:56 pm 15:56 Sunny 65 18.3 33 0.6 31 31 NNW 9 15 30.04 1017 10 16.0934 0 0
4:56 pm 16:56 Sunny 66 18.9 35 1.7 32 32 NNW 10 17 30.02 1017 10 16.0934 0 0
5:56 pm 17:56 Sunny 66 18.9 37 2.8 34 34 WNW 8 13 30.02 1017 10 16.0934 0 0
6:56 pm 18:56 Sunny 64 17.8 38 3.3 38 38 NNW 8 13 30.03 1017 10 16.0934 0 0
7:56 pm 19:56 Sunny 59 15 38 3.3 46 46 NNW 6 9 30.02 1017 10 16.0934 0 0
8:56 pm 20:56 Clear 55 12.8 41 5 59 59 NW 3 6 30.03 1017 10 16.0934 0 0
9:56 pm 21:56 Clear 55 12.8 37 2.8 51 51 N 3 6 30.04 1017 10 16.0934 0 0
10:56 pm 22:56 Clear 53 11.7 38 3.3 57 57 NNW 5 7 30.04 1017 10 16.0934 0 0
11:56 pm 23:56 Clear 46 7.8 40 4.4 79 79 E 3 6 30.04 1017 10 16.0934 0 0

Powered by AerisWeather